When you browse on this site, cookies collect data to enhance your experience and personalize the content and advertising you see.
Visit our Privacy Policy to learn more. By continuing to use the site, you agree to this use of cookies and data.
  • In Romania
  • List of Countries
  • For 7 days
  • Water Temperature
  • Satellite Maps
  • Weather Map
  • Weather Widgets
  • user-avatar
    Login

    Hourly Weather Koscielec

    Today, 24 February, Sunday

    Time Temperature Precipitation Wind Pressure Humidity
    00:00 -17°C° 0 mm 1 mps 600 mmHg 65%
    01:00 -16°C° 0 mm 1 mps 600 mmHg 62%
    02:00 -16°C° 0 mm 1 mps 600 mmHg 60%
    03:00 -15°C° 0 mm 0 mps 600 mmHg 59%
    04:00 -15°C° 0 mm 0 mps 600 mmHg 57%
    05:00 -14°C° 0 mm 1 mps 600 mmHg 57%
    06:00 -13°C° 0 mm 1 mps 600 mmHg 56%
    07:00 -13°C° 0 mm 1 mps 601 mmHg 56%
    08:00 -12°C° 0 mm 1 mps 601 mmHg 55%
    09:00 -10°C° 0 mm 1 mps 602 mmHg 54%
    10:00 -9°C° 0 mm 1 mps 602 mmHg 53%
    11:00 -8°C° 0 mm 1 mps 603 mmHg 55%
    12:00 -8°C° 0 mm 1 mps 603 mmHg 56%
    13:00 -7°C° 0 mm 1 mps 603 mmHg 57%
    14:00 -7°C° 0 mm 1 mps 603 mmHg 62%
    15:00 -8°C° 0 mm 1 mps 602 mmHg 66%
    16:00 -8°C° 0 mm 1 mps 602 mmHg 71%
    17:00 -9°C° 0 mm 1 mps 601 mmHg 76%
    18:00 -10°C° 0 mm 1 mps 601 mmHg 81%
    19:00 -10°C° 0 mm 1 mps 601 mmHg 86%
    20:00 -11°C° 0 mm 1 mps 600 mmHg 86%
    21:00 -11°C° 0 mm 1 mps 600 mmHg 86%
    22:00 -11°C° 0 mm 1 mps 600 mmHg 86%
    23:00 -11°C° 0 mm 1 mps 600 mmHg 82%

    Tomorrow, 25 February, Monday

    Time Temperature Precipitation Wind Pressure Humidity
    00:00 -11°C° 0 mm 1 mps 600 mmHg 78%
    01:00 -10°C° 0 mm 1 mps 601 mmHg 74%
    02:00 -10°C° 0 mm 1 mps 600 mmHg 75%
    03:00 -10°C° 0 mm 1 mps 600 mmHg 75%
    04:00 -10°C° 0 mm 1 mps 600 mmHg 76%
    05:00 -10°C° 0 mm 1 mps 600 mmHg 75%
    06:00 -10°C° 0 mm 1 mps 600 mmHg 75%
    07:00 -10°C° 0 mm 1 mps 600 mmHg 74%
    08:00 -7°C° 0 mm 1 mps 601 mmHg 71%
    09:00 -4°C° 0 mm 1 mps 602 mmHg 67%
    10:00 -4°C° 0 mm 2 mps 604 mmHg 64%
    11:00 -4°C° 0 mm 2 mps 604 mmHg 64%
    12:00 -3°C° 0 mm 2 mps 604 mmHg 64%
    13:00 -2°C° 0 mm 2 mps 604 mmHg 64%
    14:00 -3°C° 0 mm 2 mps 603 mmHg 69%
    15:00 -4°C° 0 mm 2 mps 602 mmHg 74%
    16:00 -3°C° 0 mm 1 mps 602 mmHg 79%
    17:00 -4°C° 0 mm 1 mps 601 mmHg 82%
    18:00 -7°C° 0 mm 1 mps 600 mmHg 85%
    19:00 -9°C° 0 mm 2 mps 600 mmHg 88%
    20:00 -9°C° 0 mm 2 mps 600 mmHg 88%
    21:00 -10°C° 0 mm 2 mps 599 mmHg 87%
    22:00 -10°C° 0 mm 2 mps 599 mmHg 87%
    23:00 -10°C° 0 mm 2 mps 599 mmHg 87%

    Day after tomorrow, 26 February, Tuesday

    Time Temperature Precipitation Wind Pressure Humidity
    00:00 -9°C° 0 mm 1 mps 599 mmHg 87%
    01:00 -9°C° 0 mm 1 mps 599 mmHg 88%
    02:00 -9°C° 0 mm 1 mps 598 mmHg 87%
    03:00 -9°C° 0 mm 1 mps 598 mmHg 87%
    04:00 -9°C° 0 mm 1 mps 598 mmHg 86%
    05:00 -9°C° 0 mm 1 mps 598 mmHg 86%
    06:00 -10°C° 0 mm 2 mps 598 mmHg 86%
    07:00 -10°C° 0 mm 2 mps 597 mmHg 85%
    08:00 -8°C° 0 mm 2 mps 598 mmHg 83%
    09:00 -7°C° 0 mm 2 mps 599 mmHg 81%
    10:00 -6°C° 0 mm 3 mps 600 mmHg 79%
    11:00 -5°C° 0 mm 3 mps 599 mmHg 80%
    12:00 -5°C° 0 mm 3 mps 599 mmHg 81%
    13:00 -5°C° 0 mm 3 mps 599 mmHg 81%
    14:00 -5°C° 0.2 mm 3 mps 598 mmHg 84%
    15:00 -6°C° 0.2 mm 3 mps 598 mmHg 87%
    16:00 -7°C° 0.2 mm 3 mps 597 mmHg 90%
    17:00 -8°C° 0 mm 3 mps 597 mmHg 91%
    18:00 -8°C° 0 mm 3 mps 597 mmHg 92%
    19:00 -9°C° 0 mm 3 mps 597 mmHg 93%
    20:00 -9°C° 0 mm 3 mps 597 mmHg 93%
    21:00 -10°C° 0 mm 3 mps 597 mmHg 94%
    22:00 -10°C° 0 mm 3 mps 597 mmHg 94%
    23:00 -10°C° 0 mm 3 mps 597 mmHg 94%

    27 February, Wednesday

    Time Temperature Precipitation Wind Pressure Humidity
    00:00 -10°C° 0 mm 3 mps 597 mmHg 94%
    01:00 -12°C° 0 mm 3 mps 596 mmHg 95%
    02:00 -10°C° 0 mm 2 mps 596 mmHg 94%
    03:00 -10°C° 0 mm 2 mps 596 mmHg 94%
    04:00 -10°C° 0 mm 2 mps 596 mmHg 94%
    05:00 -10°C° 0 mm 2 mps 596 mmHg 93%
    06:00 -12°C° 0 mm 2 mps 596 mmHg 93%
    07:00 -12°C° 0 mm 2 mps 596 mmHg 92%
    08:00 -9°C° 0 mm 2 mps 597 mmHg 81%
    09:00 -7°C° 0 mm 2 mps 598 mmHg 70%
    10:00 -6°C° 0 mm 2 mps 599 mmHg 59%
    11:00 -5°C° 0 mm 2 mps 599 mmHg 55%
    12:00 -4°C° 0 mm 2 mps 599 mmHg 51%
    13:00 -3°C° 0 mm 2 mps 599 mmHg 47%
    14:00 -3°C° 0 mm 2 mps 599 mmHg 53%
    15:00 -2°C° 0 mm 1 mps 598 mmHg 58%
    16:00 -2°C° 0 mm 1 mps 598 mmHg 63%
    17:00 -3°C° 0 mm 1 mps 597 mmHg 64%
    18:00 -4°C° 0 mm 1 mps 596 mmHg 66%
    19:00 -7°C° 0 mm 1 mps 596 mmHg 67%
    20:00 -7°C° 0 mm 1 mps 595 mmHg 71%
    21:00 -7°C° 0 mm 1 mps 595 mmHg 75%
    22:00 -6°C° 0 mm 1 mps 595 mmHg 78%
    23:00 -6°C° 0 mm 1 mps 595 mmHg 76%

    28 February, Thursday

    Time Temperature Precipitation Wind Pressure Humidity
    00:00 -6°C° 0 mm 1 mps 595 mmHg 73%
    01:00 -6°C° 0 mm 1 mps 595 mmHg 71%
    02:00 -6°C° 0 mm 1 mps 594 mmHg 70%
    03:00 -6°C° 0 mm 1 mps 594 mmHg 69%
    04:00 -6°C° 0 mm 1 mps 593 mmHg 69%
    05:00 -6°C° 0 mm 1 mps 593 mmHg 68%
    06:00 -6°C° 0 mm 1 mps 593 mmHg 67%
    07:00 -7°C° 0 mm 2 mps 593 mmHg 66%
    08:00 -5°C° 0 mm 2 mps 594 mmHg 62%
    09:00 -3°C° 0 mm 2 mps 595 mmHg 59%
    10:00 +1°C° 0 mm 2 mps 595 mmHg 56%
    11:00 +1°C° 0 mm 2 mps 595 mmHg 54%
    12:00 +2°C° 0 mm 2 mps 595 mmHg 53%
    13:00 +2°C° 0 mm 3 mps 595 mmHg 51%
    14:00 +2°C° 0 mm 2 mps 594 mmHg 58%
    15:00 -1°C° 0 mm 2 mps 593 mmHg 64%
    16:00 -2°C° 0 mm 2 mps 592 mmHg 71%
    17:00 -3°C° 0 mm 2 mps 592 mmHg 76%
    18:00 -5°C° 0 mm 2 mps 591 mmHg 80%
    19:00 -7°C° 0 mm 2 mps 590 mmHg 85%
    20:00 -6°C° 0 mm 2 mps 591 mmHg 87%
    21:00 -6°C° 0 mm 2 mps 591 mmHg 89%
    22:00 -6°C° 0 mm 2 mps 591 mmHg 91%
    23:00 -6°C° 0.1 mm 2 mps 591 mmHg 93%

    1 March, Friday

    Time Temperature Precipitation Wind Pressure Humidity
    00:00 -6°C° 0.1 mm 2 mps 591 mmHg 94%
    01:00 -6°C° 0.1 mm 2 mps 591 mmHg 95%
    02:00 -6°C° 0.1 mm 2 mps 591 mmHg 95%
    03:00 -6°C° 0.1 mm 2 mps 591 mmHg 95%
    04:00 -7°C° 0.1 mm 2 mps 591 mmHg 94%
    05:00 -7°C° 0 mm 2 mps 591 mmHg 94%
    06:00 -8°C° 0 mm 2 mps 591 mmHg 94%
    07:00 -8°C° 0 mm 2 mps 591 mmHg 93%
    08:00 -7°C° 0 mm 2 mps 591 mmHg 88%
    09:00 -7°C° 0 mm 2 mps 592 mmHg 82%
    10:00 -7°C° 0 mm 3 mps 592 mmHg 77%
    11:00 -6°C° 0 mm 3 mps 593 mmHg 74%
    12:00 -6°C° 0 mm 3 mps 593 mmHg 72%
    13:00 -6°C° 0 mm 3 mps 593 mmHg 70%
    14:00 -6°C° 0 mm 3 mps 593 mmHg 72%
    15:00 -6°C° 0 mm 2 mps 592 mmHg 75%
    16:00 -6°C° 0 mm 2 mps 592 mmHg 77%
    17:00 -7°C° 0 mm 2 mps 592 mmHg 82%
    18:00 -8°C° 0 mm 2 mps 591 mmHg 87%
    19:00 -10°C° 0 mm 2 mps 591 mmHg 92%
    20:00 -10°C° 0 mm 2 mps 591 mmHg 92%
    21:00 -10°C° 0 mm 2 mps 592 mmHg 92%
    22:00 -10°C° 0 mm 2 mps 592 mmHg 92%
    23:00 -10°C° 0 mm 2 mps 592 mmHg 91%
    Show more